Location: St. Louis
(38.6270°N, 90.1994°W)
Time: 11:51:56
(UTC-06:00)

A-11 Canister half - Pass Details

Date: 14 December 2021
Orbit: 1524 x 1684 km, 47.3° (Epoch: 25 January)

Event Time Altitude Azimuth Distance (km) Brightness Sun altitude
Rises 05:41:51 0° 300° (WNW) 4,931 - -16.8°
Reaches altitude 10° 05:45:10 10° 295° (WNW) 3,929 - -16.2°
Exits shadow 05:47:48 20° 288° (WNW) 3,180 10.0 -15.7°
Maximum altitude 05:54:38 49° 225° (SW) 2,034 9.4 -14.4°
Drops below altitude 10° 06:03:50 10° 154° (SSE) 3,808 11.7 -12.7°
Sets 06:07:01 0° 149° (SSE) 4,768 12.5 -12.2°
